Location: Home
(40.5300°N, 105.0300°W)
Time: 05:15:24
(UTC-06:00)

STARLINK-2712 - Visible Passes

Search period start: 23 October 2021 00:00
Search period end: 02 November 2021 00:00
Orbit: 546 x 548 km, 53.1° (Epoch: 23 October)

Date Brightness Start Highest point End Pass type
(mag) Time Alt. Az. Time Alt. Az. Time Alt. Az.
23 Oct 4.9 06:32:24 10° SSW 06:36:17 42° SE 06:40:11 10° ENE visible
24 Oct 4.2 06:25:55 10° SW 06:29:56 58° SE 06:34:00 10° ENE visible
25 Oct 6.6 04:44:10 10° SE 04:44:47 10° ESE 04:45:23 10° ESE visible
25 Oct 3.7 06:19:32 10° SW 06:23:39 79° SE 06:27:46 10° NE visible
26 Oct 6.3 04:38:28 15° SE 04:38:28 15° SE 04:40:40 10° E visible
26 Oct 3.5 06:14:07 16° SW 06:17:25 78° NW 06:21:33 10° NE visible
27 Oct 6.3 04:33:19 17° ESE 04:33:19 17° ESE 04:35:03 10° E visible
27 Oct 3.7 06:08:58 25° WSW 06:11:13 59° NW 06:15:18 10° NE visible
28 Oct 6.4 04:28:00 17° E 04:28:00 17° E 04:29:12 10° ENE visible
28 Oct 4.0 06:03:38 32° W 06:05:03 46° NNW 06:09:03 10° NE visible
29 Oct 6.6 04:22:34 14° ENE 04:22:34 14° ENE 04:23:14 10° ENE visible
29 Oct 4.3 05:58:12 33° NW 05:58:58 37° NNW 06:02:49 10° NE visible
30 Oct 6.9 04:17:02 11° ENE 04:17:02 11° ENE 04:17:13 10° ENE visible
30 Oct 4.6 05:52:40 30° NW 05:52:54 30° NNW 05:56:34 10° NE visible
31 Oct 4.9 05:47:03 25° NNW 05:47:03 25° NNW 05:50:21 10° NNE visible
01 Nov 5.3 05:41:24 21° N 05:41:24 21° N 05:44:10 10° NNE visible
